Location: Irma
(52.9170°N, 111.2330°W)
Time: 14:05:59
(UTC-06:00)

Amateur Radio Satellites - All Passes

Search period start: 28 May 2015 13:35
Search period end: 29 May 2015 13:35
Location: Irma, 52.9170°N, 111.2330°W

Satellite Date Start Highest point End Downlink Frequencies (MHz)
Time Altitude Azimuth
DX 1 28 May 13:36:33 13:39:57 22° 301° (WNW) 13:43:16 434.975-435.025
50 SAT 28 May 13:41:27 13:44:35 23° 297° (WNW) 13:47:39 437.505
CUBEBUG 1 28 May 13:49:54 13:54:08 43° 293° (WNW) 13:58:21 437.445
VELOX 1 28 May 13:56:53 14:00:35 25° 300° (WNW) 14:04:12 145.980
ESTCUBE 1 28 May 14:06:02 14:10:01 30° 297° (WNW) 14:13:57 437.505/2401.250
Gurwin Techsat 1B 28 May 14:11:49 14:16:54 49° 67° (ENE) 14:22:03 435.225
AO-7 28 May 14:13:34 14:20:22 30° 45° (NE) 14:27:21 29.400- 29.500
SPROUT 28 May 14:22:13 14:26:31 60° 289° (WNW) 14:30:47 437.525
JAS-2 28 May 14:22:47 14:26:59 20° 54° (NE) 14:31:03 435.910
HORYU 2 28 May 14:24:26 14:26:50 15° 54° (NE) 14:29:22 437.375
AISAT 28 May 14:30:00 14:32:33 15° 306° (NW) 14:34:57 437.250
Cosmos 2504 28 May 14:38:42 14:39:37 10° 326° (NW) 14:40:11 435.465 / 435.565
TISAT 1 28 May 14:38:59 14:43:12 55° 290° (WNW) 14:47:22 437.305
ITUPSAT 1 28 May 14:41:59 14:46:18 33° 95° (E) 14:50:40 437.325
Oscar 19 28 May 14:46:35 14:51:20 35° 265° (W) 14:56:05 437.125/150
RS-15 28 May 14:47:12 14:57:55 47° 7° (N) 15:09:09 29.354- 29.394
BEESAT 28 May 14:48:31 14:52:58 38° 96° (E) 14:57:27 436.000
DANDE 28 May 14:49:32 14:57:18 63° 291° (WNW) 15:05:53 436.750
GONETS M04 28 May 14:53:55 15:02:43 65° 287° (WNW) 15:11:33
SWISSCUBE 28 May 14:57:13 15:01:52 48° 99° (E) 15:06:30 437.505
ITAMSAT 1 28 May 15:03:41 15:08:50 67° 257° (WSW) 15:14:03 435.822/435.867
Cosmos 2499 28 May 15:06:07 15:13:20 42° 89° (E) 15:20:11 435.465 / 435.565
CUSAT 1 28 May 15:10:11 15:17:45 43° 298° (WNW) 15:25:34 437.405
STARS 28 May 15:26:23 15:28:22 13° 85° (E) 15:30:32 437.465
Gurwin Techsat 1B 28 May 15:52:22 15:57:07 32° 266° (W) 16:01:51 435.225
HORYU 2 28 May 15:58:21 16:02:51 80° 71° (ENE) 16:07:21 437.375
SPROUT 28 May 16:00:28 16:01:48 11° 308° (NW) 16:02:57 437.525
KKS-1 28 May 16:01:22 16:05:35 38° 97° (E) 16:09:47 437.445
AO-7 28 May 16:03:59 16:12:18 86° 68° (ENE) 16:20:43 29.400- 29.500
JAS-2 28 May 16:05:12 16:11:35 85° 74° (ENE) 16:17:16 435.910
O/OREOS (USA 219) 28 May 16:11:23 16:15:39 44° 111° (ESE) 16:19:58 437.305
Cubesat XI-IV 28 May 16:16:07 16:16:55 10° 43° (NE) 16:17:55 437.490
TISAT 1 28 May 16:17:31 16:18:08 10° 309° (NW) 16:18:35 437.305
ITUPSAT 1 28 May 16:19:49 16:24:19 41° 295° (WNW) 16:28:47 437.325
BEESAT 28 May 16:26:27 16:30:49 36° 296° (WNW) 16:35:09 436.000
YUBILEINY 28 May 16:34:48 16:40:21 18° 42° (NE) 16:46:12 435.215
SWISSCUBE 28 May 16:35:24 16:39:33 29° 299° (WNW) 16:43:38 437.505
DANDE 28 May 16:36:15 16:42:30 22° 315° (NW) 16:48:47 436.750
ITAMSAT 1 28 May 16:47:32 16:49:29 12° 279° (W) 16:51:10 435.822/435.867
GONETS M04 28 May 16:55:19 17:01:46 21° 315° (NW) 17:07:58
CUSAT 1 28 May 16:58:09 17:02:57 16° 323° (NW) 17:07:26 437.405
Cosmos 2499 28 May 16:58:45 17:06:26 52° 290° (WNW) 17:13:36 435.465 / 435.565
RS-15 28 May 17:00:57 17:12:23 72° 38° (NE) 17:24:23 29.354- 29.394
STARS 28 May 17:01:06 17:05:35 88° 105° (ESE) 17:10:01 437.465
BEESAT 3 28 May 17:29:16 17:29:46 10° 111° (ESE) 17:30:29 437.485
CUTE-I 28 May 17:30:11 17:34:45 30° 60° (ENE) 17:39:24 437.470
HORYU 2 28 May 17:37:19 17:40:07 16° 273° (W) 17:42:45 437.375
KKS-1 28 May 17:38:09 17:42:10 32° 296° (WNW) 17:46:08 437.445
MOZHAYETS 4 28 May 17:43:15 17:47:34 40° 97° (E) 17:51:53
Cubesat XI-IV 28 May 17:50:51 17:55:48 42° 64° (ENE) 18:00:49 437.490
O/OREOS (USA 219) 28 May 17:51:09 17:55:14 32° 312° (NW) 17:59:18 437.305
JAS-2 28 May 17:52:47 17:57:24 20° 272° (W) 18:01:31 435.910
AO-7 28 May 17:59:15 18:06:13 28° 271° (W) 18:13:02 29.400- 29.500
BEESAT 2 28 May 18:17:28 18:20:44 23° 118° (ESE) 18:24:06 435.950
YUBILEINY 28 May 18:31:03 18:39:37 58° 70° (ENE) 18:48:12 435.215
HO-68 28 May 18:35:23 18:40:03 19° 41° (NE) 18:44:53 435.675
STARS 28 May 18:38:39 18:41:28 17° 305° (NW) 18:44:11 437.465
Cosmos 2491 28 May 18:44:35 18:51:35 29° 79° (E) 18:58:49 435.465 / 435.565
GOMX 1 28 May 18:54:17 18:57:20 16° 51° (NE) 19:00:35 467.674
Cosmos 2499 28 May 18:57:32 19:01:41 15° 316° (NW) 19:05:26 435.465 / 435.565
BRITE-PL 28 May 19:00:03 19:04:09 23° 56° (NE) 19:08:31 437.365/2234.400
BEESAT 3 28 May 19:02:57 19:07:01 64° 129° (SE) 19:11:07 437.485
CUTE-I 28 May 19:09:23 19:14:37 55° 259° (W) 19:19:53 437.470
RS-15 28 May 19:13:40 19:24:37 51° 244° (WSW) 19:35:52 29.354- 29.394
MOZHAYETS 4 28 May 19:20:39 19:24:43 32° 296° (WNW) 19:28:45
CUBESAT XI-V 28 May 19:27:08 19:31:36 41° 97° (E) 19:36:04 437.345
Cubesat XI-IV 28 May 19:31:01 19:35:59 38° 264° (W) 19:40:58 437.490
CANX-2 28 May 19:31:28 19:33:53 15° 57° (ENE) 19:36:23 2200.000
CUTE 1.7 + AOD 2 28 May 19:34:47 19:37:08 15° 57° (ENE) 19:39:36 437.475
O/OREOS (USA 219) 28 May 19:35:30 19:36:08 10° 336° (NNW) 19:36:40 437.305
DOVE 4 28 May 19:44:19 19:48:26 24° 58° (ENE) 19:52:40 437.250
SEEDS 28 May 19:53:45 19:56:33 18° 59° (ENE) 19:59:28 437.485
STRAND 1 28 May 19:54:05 19:58:42 33° 94° (E) 20:03:20 437.568
BEESAT 2 28 May 19:54:24 19:58:31 63° 317° (NW) 20:02:40 435.950
AIST 2 28 May 19:56:34 20:00:45 56° 127° (SE) 20:04:59 435.215
PRISM 28 May 20:00:54 20:04:46 37° 97° (E) 20:08:40 437.425
COMPASS 1 28 May 20:03:47 20:06:38 18° 59° (ENE) 20:09:33 437.405
AAUSAT CUBESAT 2 28 May 20:14:04 20:17:02 20° 60° (ENE) 20:20:05 437.432
M-CUBED/EXP-1 PRIME 28 May 20:15:28 20:17:05 13° 95° (E) 20:18:49 437.505
HO-68 28 May 20:19:32 20:26:33 60° 64° (ENE) 20:33:37 435.675
AUBIESAT-1 28 May 20:21:41 20:23:21 13° 95° (E) 20:25:08 437.475
Cosmos 2504 28 May 20:26:20 20:32:50 34° 62° (ENE) 20:39:18 435.465 / 435.565
YUBILEINY 28 May 20:28:17 20:36:18 42° 274° (W) 20:44:12 435.215
GOMX 1 28 May 20:29:17 20:34:31 65° 71° (ENE) 20:40:01 467.674
DELFI C3 28 May 20:30:03 20:31:18 11° 54° (NE) 20:32:41 145.870
UWE-3 28 May 20:31:43 20:34:16 15° 55° (NE) 20:36:55 435.000/436.395/437.385
BRITE-PL 28 May 20:36:44 20:42:03 82° 255° (WSW) 20:47:44 437.365/2234.400
FUNcube-1 28 May 20:36:58 20:39:01 13° 54° (NE) 20:41:12 145.935
Cosmos 2491 28 May 20:38:44 20:47:35 83° 281° (W) 20:56:31 435.465 / 435.565
BEESAT 3 28 May 20:41:37 20:45:18 30° 330° (NNW) 20:48:59 437.485
CINEMA 3 28 May 20:44:28 20:49:02 36° 65° (ENE) 20:53:38 145.822/145.860
CUBESAT XI-V 28 May 21:04:46 21:08:58 33° 296° (WNW) 21:13:08 437.345
CANX-2 28 May 21:04:59 21:09:16 89° 263° (W) 21:13:32 2200.000
CUTE 1.7 + AOD 2 28 May 21:08:13 21:12:29 90° 190° (S) 21:16:46 437.475
UKube-1 28 May 21:15:34 21:17:56 15° 54° (NE) 21:20:27 .
ZACube-1 28 May 21:16:18 21:20:03 26° 62° (ENE) 21:23:50 437.345
DOVE 4 28 May 21:20:27 21:25:41 74° 257° (WSW) 21:31:04 437.250
AIST 1 28 May 21:21:09 21:25:24 74° 99° (E) 21:29:44
CUBEBUG 2 28 May 21:22:41 21:27:09 41° 67° (ENE) 21:31:35 437.445
Oscar 11 28 May 21:23:43 21:27:48 43° 68° (ENE) 21:31:56 145.826/435.025
DX 1 28 May 21:26:31 21:29:34 19° 57° (ENE) 21:32:42 434.975-435.025
SEEDS 28 May 21:27:44 21:31:57 70° 258° (WSW) 21:36:10 437.485
RS-15 28 May 21:29:18 21:34:25 13° 267° (W) 21:38:41 29.354- 29.394
STRAND 1 28 May 21:33:09 21:38:05 46° 295° (WNW) 21:42:59 437.568
BEESAT 2 28 May 21:34:06 21:37:21 21° 340° (NNW) 21:40:34 435.950
AIST 2 28 May 21:35:37 21:39:34 34° 328° (NNW) 21:43:30 435.215
PRISM 28 May 21:36:30 21:40:09 30° 296° (WNW) 21:43:46 437.425
COMPASS 1 28 May 21:37:44 21:41:54 68° 258° (WSW) 21:46:05 437.405
AAUSAT CUBESAT 2 28 May 21:48:10 21:52:18 61° 259° (WSW) 21:56:27 437.432
VELOX 1 28 May 21:48:47 21:51:37 17° 56° (NE) 21:54:36 145.980
M-CUBED/EXP-1 PRIME 28 May 21:49:05 21:52:24 56° 295° (WNW) 21:55:38 437.505
AUBIESAT-1 28 May 21:55:18 21:58:35 55° 295° (WNW) 22:01:49 437.475
DANDE 28 May 21:59:49 22:04:46 17° 37° (NE) 22:09:31 436.750
ESTCUBE 1 28 May 22:00:11 22:02:35 15° 54° (NE) 22:05:07 437.505/2401.250
DELFI C3 28 May 22:01:43 22:05:44 71° 73° (ENE) 22:09:46 145.870
UWE-3 28 May 22:05:26 22:10:08 78° 74° (ENE) 22:14:47 435.000/436.395/437.385
HO-68 28 May 22:08:03 22:14:41 38° 265° (W) 22:21:16 435.675
GOMX 1 28 May 22:08:45 22:13:08 25° 272° (W) 22:17:34 467.674
FUNcube-1 28 May 22:10:04 22:14:37 69° 72° (ENE) 22:19:08 145.935
CUSAT 1 28 May 22:17:43 22:23:12 21° 45° (NE) 22:28:09 437.405
BRITE-PL 28 May 22:18:14 22:21:36 16° 279° (W) 22:24:51 437.365/2234.400
Cosmos 2504 28 May 22:19:36 22:26:45 61° 266° (W) 22:33:46 435.465 / 435.565
AISAT 28 May 22:19:53 22:23:46 30° 63° (ENE) 22:27:43 437.250
CINEMA 3 28 May 22:21:24 22:26:10 41° 264° (W) 22:30:57 145.822/145.860
BEESAT 3 28 May 22:21:47 22:24:27 16° 353° (N) 22:27:04 437.485
HUMSAT D 28 May 22:28:58 22:33:11 54° 70° (ENE) 22:37:24 437.325/437.525
Cosmos 2491 28 May 22:38:48 22:46:04 26° 308° (NW) 22:53:10 435.465 / 435.565
CANX-2 28 May 22:44:01 22:45:55 12° 276° (W) 22:47:38 2200.000
TIGRISAT 28 May 22:46:42 22:48:18 12° 83° (E) 22:50:06 435.000
CUTE 1.7 + AOD 2 28 May 22:47:10 22:49:07 13° 276° (W) 22:50:55 437.475
UKube-1 28 May 22:49:08 22:53:28 84° 75° (ENE) 22:57:52 .
ZACube-1 28 May 22:51:41 22:56:11 52° 261° (W) 23:00:39 437.345
50 SAT 28 May 22:56:28 23:00:24 59° 72° (ENE) 23:04:19 437.505
O/OREOS (USA 219) 28 May 22:57:53 22:59:33 12° 28° (NNE) 23:01:19 437.305
CUBEBUG 2 28 May 22:59:36 23:03:55 33° 266° (W) 23:08:11 437.445
GONETS M04 28 May 22:59:54 23:07:12 28° 54° (NE) 23:14:36
Oscar 11 28 May 23:00:27 23:04:09 27° 267° (W) 23:07:51 145.826/435.025
AIST 1 28 May 23:00:51 23:03:40 16° 300° (WNW) 23:06:23
DX 1 28 May 23:01:00 23:05:22 72° 256° (WSW) 23:09:47 434.975-435.025
DOVE 4 28 May 23:01:42 23:04:29 14° 279° (W) 23:07:02 437.250
UNISAT 6 28 May 23:06:58 23:10:04 19° 88° (E) 23:13:14 437.425
BEESAT 2 28 May 23:14:09 23:16:47 16° 4° (N) 23:19:24 435.950
STRAND 1 28 May 23:14:44 23:16:12 11° 314° (NW) 23:17:29 437.568
NANOSAT C BR1 28 May 23:15:24 23:16:31 11° 83° (E) 23:17:51 145.865
CUBEBUG 1 28 May 23:15:32 23:19:45 48° 68° (ENE) 23:24:02 437.445
AIST 2 28 May 23:16:21 23:19:16 17° 352° (N) 23:22:11 435.215
VELOX 1 28 May 23:23:11 23:27:39 83° 253° (WSW) 23:32:11 145.980
QB50P2 28 May 23:24:08 23:26:20 14° 86° (E) 23:28:42 145.880/145.840
ESTCUBE 1 28 May 23:34:19 23:38:48 80° 74° (ENE) 23:43:20 437.505/2401.250
POPSAT HIP 1 28 May 23:35:25 23:38:15 17° 88° (E) 23:41:10 437.405
DUCHIFAT 1 28 May 23:35:37 23:38:23 17° 88° (E) 23:41:15 145.980
DELFI C3 28 May 23:39:00 23:41:22 15° 273° (W) 23:43:37 145.870
DANDE 28 May 23:42:32 23:50:27 49° 64° (ENE) 23:56:57 436.750
UWE-3 28 May 23:44:07 23:47:15 17° 273° (W) 23:50:14 435.000/436.395/437.385
SPROUT 28 May 23:46:36 23:50:27 32° 65° (ENE) 23:54:22 437.525
FUNcube-1 28 May 23:48:11 23:51:26 18° 272° (W) 23:54:34 145.935
BUGSAT 1 28 May 23:49:09 23:51:52 17° 88° (E) 23:54:42 437.445
ANTELSAT 28 May 23:49:42 23:53:57 44° 98° (E) 23:58:06 437.575/2403.000
AISAT 28 May 23:55:59 00:00:14 42° 262° (W) 00:04:32 437.250
CUSAT 1 29 May 00:00:02 00:07:39 70° 72° (ENE) 00:13:37 437.405
BEESAT 3 29 May 00:00:46 00:03:47 19° 17° (NNE) 00:06:49 437.485
TISAT 1 29 May 00:01:32 00:05:22 34° 65° (ENE) 00:09:16 437.305
HUMSAT D 29 May 00:05:54 00:09:15 21° 270° (W) 00:12:32 437.325/437.525
ISS 29 May 00:11:04 00:13:38 22° 148° (SSE) 00:16:13 145.825
Cosmos 2504 29 May 00:15:21 00:18:39 13° 288° (WNW) 00:21:32 435.465 / 435.565
QB50P1 29 May 00:18:26 00:22:31 41° 97° (E) 00:26:35 145.935-145.965
ITUPSAT 1 29 May 00:19:34 00:22:10 15° 52° (NE) 00:24:53 437.325
TIGRISAT 29 May 00:21:27 00:25:54 84° 104° (ESE) 00:30:14 435.000
POLYITAN 1 29 May 00:21:38 00:25:46 45° 98° (E) 00:29:53 437.675
BEESAT 29 May 00:25:28 00:28:22 17° 54° (NE) 00:31:24 436.000
UKube-1 29 May 00:27:54 00:30:17 14° 274° (W) 00:32:31 .
50 SAT 29 May 00:32:46 00:35:30 17° 271° (W) 00:38:07 437.505
SWISSCUBE 29 May 00:33:43 00:37:06 20° 56° (ENE) 00:40:35 437.505
O/OREOS (USA 219) 29 May 00:36:00 00:40:15 41° 51° (NE) 00:44:31 437.305
DX 1 29 May 00:41:42 00:42:32 10° 277° (W) 00:43:09 434.975-435.025
PCSat 29 May 00:41:42 00:45:53 24° 111° (ESE) 00:50:11 145.827
UNISAT 6 29 May 00:42:56 00:47:20 62° 289° (WNW) 00:51:36 437.425
NANOSAT C BR1 29 May 00:48:52 00:53:12 79° 104° (ESE) 00:57:28 145.865
Cosmos 2499 29 May 00:49:19 00:54:34 22° 53° (NE) 00:59:58 435.465 / 435.565
BEESAT 2 29 May 00:52:31 00:56:06 27° 27° (NNE) 00:59:39 435.950
CUBEBUG 1 29 May 00:52:45 00:56:23 24° 268° (W) 00:59:59 437.445
AIST 2 29 May 00:56:06 00:59:15 20° 15° (NNE) 01:02:26 435.215
GONETS M04 29 May 00:56:34 01:05:27 90° 77° (ENE) 01:14:13
QB50P2 29 May 00:58:33 01:02:54 83° 285° (WNW) 01:07:10 145.880/145.840
VELOX 1 29 May 01:03:01 01:05:02 12° 276° (W) 01:06:50 145.980
POPSAT HIP 1 29 May 01:10:19 01:14:37 67° 288° (WNW) 01:18:51 437.405
DUCHIFAT 1 29 May 01:10:25 01:14:42 68° 288° (WNW) 01:18:55 145.980
ESTCUBE 1 29 May 01:13:33 01:16:19 16° 274° (W) 01:18:58 437.505/2401.250
SPROUT 29 May 01:22:28 01:26:30 36° 264° (W) 01:30:33 437.525
BUGSAT 1 29 May 01:23:34 01:27:52 70° 287° (WNW) 01:32:06 437.445
DANDE 29 May 01:26:06 01:33:47 48° 270° (W) 01:39:57 436.750
ANTELSAT 29 May 01:26:49 01:30:34 27° 298° (WNW) 01:34:13 437.575/2403.000
KKS-1 29 May 01:31:28 01:33:41 14° 53° (NE) 01:36:03 437.445
TISAT 1 29 May 01:37:16 01:41:09 33° 264° (W) 01:45:04 437.305
BEESAT 3 29 May 01:38:34 01:42:36 52° 39° (NE) 01:46:37 437.485
CUSAT 1 29 May 01:43:28 01:49:39 29° 277° (W) 01:54:40 437.405
ISS 29 May 01:46:26 01:49:39 58° 168° (SSE) 01:52:53 145.825
QB50P1 29 May 01:54:33 01:58:16 28° 297° (WNW) 02:01:54 145.935-145.965
ITUPSAT 1 29 May 01:54:36 01:59:20 75° 73° (ENE) 02:04:07 437.325
POLYITAN 1 29 May 01:57:52 02:01:31 26° 298° (WNW) 02:05:04 437.675
TIGRISAT 29 May 01:59:16 02:02:06 17° 304° (NW) 02:04:47 435.000
BEESAT 29 May 02:00:49 02:05:35 85° 76° (ENE) 02:10:24 436.000
SWISSCUBE 29 May 02:09:44 02:14:30 77° 257° (WSW) 02:19:17 437.505
O/OREOS (USA 219) 29 May 02:15:36 02:19:37 32° 252° (WSW) 02:23:35 437.305
UNISAT 6 29 May 02:21:45 02:23:18 11° 309° (NW) 02:24:40 437.425
PCSat 29 May 02:23:23 02:28:49 78° 311° (NW) 02:34:18 145.827
Gurwin Techsat 1B 29 May 02:23:41 02:25:32 12° 81° (E) 02:27:38 435.225
NANOSAT C BR1 29 May 02:25:43 02:28:32 17° 303° (WNW) 02:31:15 145.865
STARS 29 May 02:28:23 02:32:02 26° 61° (ENE) 02:35:45 437.465
BEESAT 2 29 May 02:30:27 02:34:37 79° 229° (SW) 02:38:42 435.950
AIST 2 29 May 02:34:35 02:38:45 49° 38° (NE) 02:42:52 435.215
QB50P2 29 May 02:35:49 02:38:10 14° 305° (NW) 02:40:23 145.880/145.840
Cosmos 2499 29 May 02:41:52 02:49:00 85° 78° (ENE) 02:56:09 435.465 / 435.565
POPSAT HIP 1 29 May 02:48:03 02:49:44 12° 307° (NW) 02:51:17 437.405
DUCHIFAT 1 29 May 02:48:03 02:49:47 12° 307° (NW) 02:51:21 145.980
Oscar 19 29 May 02:51:14 02:56:19 54° 100° (E) 03:01:22 437.125/150
GONETS M04 29 May 02:54:24 03:01:18 26° 282° (WNW) 03:07:54
BUGSAT 1 29 May 03:00:45 03:02:36 12° 307° (NW) 03:04:19 437.445
KKS-1 29 May 03:05:08 03:09:38 74° 72° (ENE) 03:14:09 437.445
ITAMSAT 1 29 May 03:10:32 03:15:00 28° 92° (E) 03:19:32 435.822/435.867
DANDE 29 May 03:12:28 03:14:57 11° 292° (WNW) 03:16:54 436.750
MOZHAYETS 4 29 May 03:16:38 03:18:56 14° 54° (NE) 03:21:23
BEESAT 3 29 May 03:16:51 03:20:25 28° 240° (WSW) 03:23:54 437.485
ISS 29 May 03:22:43 03:25:58 67° 186° (S) 03:29:13 145.825
SO-50 29 May 03:30:22 03:34:39 34° 121° (ESE) 03:39:04 436.795
ITUPSAT 1 29 May 03:34:31 03:37:50 18° 272° (W) 03:41:03 437.325
BEESAT 29 May 03:41:10 03:44:09 16° 274° (W) 03:46:59 436.000
SWISSCUBE 29 May 03:51:11 03:53:17 12° 277° (W) 03:55:09 437.505
AO-7 29 May 03:59:42 04:05:13 20° 83° (E) 04:11:06 29.400- 29.500
Gurwin Techsat 1B 29 May 04:01:22 04:06:41 67° 102° (ESE) 04:11:59 435.225
STARS 29 May 04:03:54 04:08:15 50° 260° (W) 04:12:37 437.465
PCSat 29 May 04:08:29 04:13:05 27° 334° (NNW) 04:17:41 145.827
BEESAT 2 29 May 04:10:03 04:12:04 13° 247° (WSW) 04:13:54 435.950
AIST 2 29 May 04:13:24 04:17:13 32° 239° (WSW) 04:20:56 435.215
Oscar 19 29 May 04:31:00 04:35:27 29° 300° (WNW) 04:39:50 437.125/150
Cosmos 2499 29 May 04:36:03 04:41:20 22° 280° (W) 04:46:26 435.465 / 435.565
KKS-1 29 May 04:43:49 04:46:50 17° 272° (W) 04:49:43 437.445
Cosmos 2491 29 May 04:45:06 04:51:37 23° 47° (NE) 04:58:20 435.465 / 435.565
ITAMSAT 1 29 May 04:49:44 04:54:50 54° 293° (WNW) 04:59:56 435.822/435.867
MOZHAYETS 4 29 May 04:50:55 04:55:28 75° 73° (ENE) 05:00:03
JAS-2 29 May 04:52:43 04:57:34 39° 96° (E) 05:02:32 435.910
ISS 29 May 04:59:11 05:02:06 29° 207° (SSW) 05:05:00 145.825
CUBESAT XI-V 29 May 05:01:43 05:04:11 15° 54° (NE) 05:06:48 437.345
SO-50 29 May 05:10:19 05:15:02 56° 322° (NW) 05:19:55 436.795
HORYU 2 29 May 05:20:03 05:24:31 69° 103° (ESE) 05:28:55 437.375
PRISM 29 May 05:25:07 05:25:58 11° 52° (NE) 05:26:58 437.425
M-CUBED/EXP-1 PRIME 29 May 05:36:55 05:37:39 11° 49° (NE) 05:38:31 437.505
STRAND 1 29 May 05:39:09 05:42:27 18° 53° (NE) 05:45:53 437.568
PHONESAT 2.4 29 May 05:41:11 05:42:04 11° 184° (S) 05:42:57 2401.200-2431.200
Gurwin Techsat 1B 29 May 05:41:56 05:46:18 26° 302° (WNW) 05:50:36 435.225
AUBIESAT-1 29 May 05:42:51 05:43:29 10° 48° (NE) 05:44:14 437.475
YUBILEINY 29 May 05:49:49 05:52:57 13° 67° (ENE) 05:56:38 435.215
AO-7 29 May 05:51:19 05:59:43 73° 107° (ESE) 06:08:07 29.400- 29.500
PCSat 29 May 05:54:32 05:58:16 18° 360° (N) 06:02:00 145.827
MOZHAYETS 4 29 May 06:30:16 06:33:18 17° 273° (W) 06:36:12
ITAMSAT 1 29 May 06:31:01 06:33:22 13° 313° (NW) 06:35:34 435.822/435.867
CUBESAT XI-V 29 May 06:36:19 06:40:56 77° 72° (ENE) 06:45:37 437.345
JAS-2 29 May 06:38:01 06:42:48 37° 297° (WNW) 06:47:33 435.910
Cosmos 2491 29 May 06:41:37 06:50:30 71° 74° (ENE) 06:59:18 435.465 / 435.565
SO-50 29 May 06:52:32 06:56:32 24° 345° (NNW) 07:00:36 436.795
PRISM 29 May 06:56:37 07:00:39 62° 71° (ENE) 07:04:44 437.425
HORYU 2 29 May 06:57:29 07:00:44 20° 302° (WNW) 07:03:55 437.375
M-CUBED/EXP-1 PRIME 29 May 07:08:01 07:11:58 62° 66° (ENE) 07:15:38 437.505
AUBIESAT-1 29 May 07:13:49 07:17:44 63° 66° (ENE) 07:21:21 437.475
STRAND 1 29 May 07:15:54 07:21:00 83° 74° (ENE) 07:26:10 437.568
CUTE-I 29 May 07:20:09 07:25:08 38° 96° (E) 07:30:08 437.470
AIST 1 29 May 07:21:59 07:26:03 36° 70° (ENE) 07:30:09
RS-15 29 May 07:38:14 07:44:01 17° 97° (E) 07:50:33 29.354- 29.394
PCSat 29 May 07:38:55 07:43:29 26° 25° (NNE) 07:48:04 145.827
YUBILEINY 29 May 07:39:30 07:47:49 52° 90° (E) 07:56:12 435.215
Cubesat XI-IV 29 May 07:41:24 07:46:41 55° 100° (E) 07:51:58 437.490
AO-7 29 May 07:44:33 07:52:07 39° 309° (NW) 07:59:36 29.400- 29.500
CUBESAT XI-V 29 May 08:15:58 08:19:01 17° 274° (W) 08:21:55 437.345
GOMX 1 29 May 08:26:44 08:29:38 15° 81° (E) 08:32:40 467.674
PRISM 29 May 08:33:45 08:36:33 17° 271° (W) 08:39:15 437.425
SO-50 29 May 08:34:41 08:38:34 22° 9° (N) 08:42:29 436.795
BRITE-PL 29 May 08:36:00 08:40:43 27° 88° (E) 08:45:20 437.365/2234.400
Cosmos 2491 29 May 08:39:06 08:46:50 35° 278° (W) 08:54:22 435.465 / 435.565
M-CUBED/EXP-1 PRIME 29 May 08:44:32 08:47:09 16° 263° (W) 08:49:33 437.505
CANX-2 29 May 08:46:29 08:47:34 11° 83° (E) 08:48:51 2200.000
CUTE 1.7 + AOD 2 29 May 08:49:46 08:50:41 11° 83° (E) 08:51:50 437.475
AUBIESAT-1 29 May 08:50:18 08:52:51 16° 263° (W) 08:55:11 437.475
STRAND 1 29 May 08:57:28 09:00:57 18° 273° (W) 09:04:17 437.568
AIST 1 29 May 08:59:48 09:03:39 30° 270° (W) 09:07:28
CUTE-I 29 May 09:00:14 09:05:18 43° 296° (WNW) 09:10:20 437.470
SEEDS 29 May 09:07:25 09:09:26 13° 85° (E) 09:11:37 437.485
Cosmos 2504 29 May 09:13:18 09:19:11 24° 80° (E) 09:25:01 435.465 / 435.565
DOVE 4 29 May 09:14:24 09:18:28 24° 88° (E) 09:22:27 437.250
COMPASS 1 29 May 09:16:29 09:18:31 13° 85° (E) 09:20:41 437.405
ANTELSAT 29 May 09:19:57 09:22:37 16° 55° (NE) 09:25:24 437.575/2403.000
Cubesat XI-IV 29 May 09:21:53 09:26:35 31° 300° (WNW) 09:31:13 437.490
PCSat 29 May 09:22:17 09:27:46 76° 50° (NE) 09:33:12 145.827
AAUSAT CUBESAT 2 29 May 09:26:13 09:28:29 15° 86° (E) 09:30:53 437.432
HO-68 29 May 09:28:10 09:34:34 34° 93° (E) 09:41:01 435.675
YUBILEINY 29 May 09:36:27 09:44:52 48° 294° (WNW) 09:53:15 435.215
AO-7 29 May 09:38:02 09:42:46 16° 335° (NNW) 09:47:20 29.400- 29.500
RS-15 29 May 09:43:29 09:54:02 60° 120° (ESE) 10:05:01 29.354- 29.394
QB50P1 29 May 09:44:11 09:45:50 12° 53° (NE) 09:47:39 145.935-145.965
POLYITAN 1 29 May 09:47:17 09:49:16 13° 54° (NE) 09:51:23 437.675
TIGRISAT 29 May 09:50:12 09:53:57 25° 61° (ENE) 09:57:43 435.000
UWE-3 29 May 09:52:19 09:52:57 10° 81° (E) 09:53:49 435.000/436.395/437.385
GOMX 1 29 May 10:03:18 10:08:47 80° 102° (ESE) 10:13:57 467.674
CINEMA 3 29 May 10:10:24 10:14:47 35° 94° (E) 10:18:58 145.822/145.860
UNISAT 6 29 May 10:11:12 10:15:27 37° 66° (ENE) 10:19:41 437.425
NANOSAT C BR1 29 May 10:12:49 10:15:53 20° 59° (ENE) 10:19:05 145.865
BRITE-PL 29 May 10:14:02 10:19:42 64° 290° (WNW) 10:25:06 437.365/2234.400
SO-50 29 May 10:15:30 10:20:15 43° 33° (NNE) 10:25:00 436.795
CANX-2 29 May 10:20:03 10:24:19 81° 105° (ESE) 10:28:31 2200.000
QB50P2 29 May 10:22:23 10:25:50 24° 62° (ENE) 10:29:21 145.880/145.840
CUTE 1.7 + AOD 2 29 May 10:23:11 10:27:26 79° 103° (ESE) 10:31:39 437.475
DUCHIFAT 1 29 May 10:33:26 10:37:05 28° 63° (ENE) 10:40:48 145.980
POPSAT HIP 1 29 May 10:33:40 10:37:22 29° 63° (ENE) 10:41:08 437.405
ZACube-1 29 May 10:34:56 10:38:13 21° 89° (E) 10:41:30 437.345
Oscar 11 29 May 10:40:54 10:44:55 37° 96° (E) 10:48:55 145.826/435.025
SEEDS 29 May 10:41:41 10:45:53 82° 286° (WNW) 10:50:04 437.485
CUTE-I 29 May 10:42:55 10:44:11 11° 317° (NW) 10:45:15 437.470
CUBEBUG 2 29 May 10:44:24 10:48:35 37° 95° (E) 10:52:38 437.445
BUGSAT 1 29 May 10:44:43 10:48:12 26° 62° (ENE) 10:51:48 437.445
DX 1 29 May 10:44:45 10:46:51 13° 86° (E) 10:49:08 434.975-435.025
COMPASS 1 29 May 10:50:39 10:54:50 81° 286° (WNW) 10:58:59 437.405
DOVE 4 29 May 10:51:34 10:56:43 62° 289° (WNW) 11:01:34 437.250
ANTELSAT 29 May 10:54:07 10:58:48 83° 75° (ENE) 11:03:25 437.575/2403.000
AAUSAT CUBESAT 2 29 May 11:00:31 11:04:40 75° 287° (WNW) 11:08:47 437.432
Cosmos 2504 29 May 11:03:36 11:11:47 89° 285° (WNW) 11:19:24 435.465 / 435.565
PCSat 29 May 11:06:22 11:10:44 24° 249° (WSW) 11:14:58 145.827
VELOX 1 29 May 11:09:14 11:11:14 13° 85° (E) 11:13:25 145.980
DELFI C3 29 May 11:09:58 11:13:54 52° 99° (E) 11:17:50 145.870
HO-68 29 May 11:15:43 11:22:49 65° 295° (WNW) 11:29:51 435.675
QB50P1 29 May 11:16:43 11:20:59 68° 72° (ENE) 11:25:17 145.935-145.965
POLYITAN 1 29 May 11:20:11 11:24:30 75° 72° (ENE) 11:28:50 437.675
DANDE 29 May 11:22:56 11:24:14 11° 67° (ENE) 11:26:06 436.750
ESTCUBE 1 29 May 11:23:01 11:24:24 11° 83° (E) 11:26:00 437.505/2401.250
TIGRISAT 29 May 11:25:51 11:30:26 55° 259° (W) 11:34:59 435.000
UWE-3 29 May 11:26:00 11:30:28 74° 103° (ESE) 11:34:45 435.000/436.395/437.385
FUNcube-1 29 May 11:28:50 11:33:10 62° 101° (E) 11:37:22 145.935
AO-7 29 May 11:29:40 11:32:07 12° 3° (N) 11:34:38 29.400- 29.500
CUSAT 1 29 May 11:32:37 11:36:52 16° 74° (ENE) 11:41:36 437.405
YUBILEINY 29 May 11:39:35 11:44:36 16° 322° (NW) 11:49:17 435.215
AISAT 29 May 11:40:40 11:44:23 25° 92° (E) 11:48:09 437.250
GOMX 1 29 May 11:42:08 11:46:20 23° 304° (WNW) 11:50:17 467.674
HUMSAT D 29 May 11:42:43 11:46:44 43° 98° (E) 11:50:41 437.325/437.525
NANOSAT C BR1 29 May 11:47:06 11:51:21 65° 258° (WSW) 11:55:39 145.865
CINEMA 3 29 May 11:47:35 11:52:02 38° 295° (WNW) 11:56:14 145.822/145.860
UNISAT 6 29 May 11:47:57 11:52:16 35° 264° (W) 11:56:29 437.425
BRITE-PL 29 May 11:53:48 11:57:14 16° 310° (NW) 12:00:26 437.365/2234.400
RS-15 29 May 11:55:41 12:06:36 63° 329° (NNW) 12:17:59 29.354- 29.394
SO-50 29 May 11:56:08 12:00:59 52° 234° (SW) 12:05:45 436.795
CANX-2 29 May 11:57:04 11:59:44 16° 303° (WNW) 12:02:17 2200.000
QB50P2 29 May 11:57:17 12:01:29 50° 260° (W) 12:05:43 145.880/145.840
CUTE 1.7 + AOD 2 29 May 12:00:09 12:02:52 16° 302° (WNW) 12:05:27 437.475
50 SAT 29 May 12:01:34 12:05:14 38° 97° (E) 12:08:52 437.505
UKube-1 29 May 12:06:36 12:10:58 66° 103° (ESE) 12:15:18 .
DUCHIFAT 1 29 May 12:08:42 12:12:47 41° 263° (W) 12:16:52 145.980
POPSAT HIP 1 29 May 12:09:03 12:13:08 40° 263° (W) 12:17:14 437.405
ZACube-1 29 May 12:10:40 12:14:58 54° 290° (WNW) 12:19:07 437.345
GONETS M04 29 May 12:11:16 12:17:33 23° 76° (ENE) 12:24:08
Oscar 11 29 May 12:17:12 12:21:03 31° 295° (WNW) 12:24:50 145.826/435.025
SEEDS 29 May 12:18:57 12:21:04 14° 305° (NW) 12:23:04 437.485
DX 1 29 May 12:19:23 12:23:49 89° 302° (WNW) 12:28:14 434.975-435.025
BUGSAT 1 29 May 12:19:28 12:23:30 44° 262° (W) 12:27:36 437.445
CUBEBUG 2 29 May 12:21:12 12:25:15 32° 296° (WNW) 12:29:06 437.445
COMPASS 1 29 May 12:27:50 12:29:53 13° 305° (NW) 12:31:49 437.405
DOVE 4 29 May 12:30:49 12:33:31 14° 310° (NW) 12:35:58 437.250
ANTELSAT 29 May 12:33:20 12:36:13 16° 274° (W) 12:38:58 437.575/2403.000
CUBEBUG 1 29 May 12:34:26 12:38:41 42° 98° (E) 12:42:56 437.445
Oscar 19 29 May 12:36:03 12:40:21 28° 59° (ENE) 12:44:45 437.125/150
AAUSAT CUBESAT 2 29 May 12:37:50 12:39:37 12° 305° (NW) 12:41:16 437.432
VELOX 1 29 May 12:44:03 12:48:35 86° 103° (ESE) 12:53:04 145.980
DELFI C3 29 May 12:45:39 12:48:44 21° 299° (WNW) 12:51:46 145.870
QB50P1 29 May 12:54:27 12:57:21 17° 272° (W) 13:00:09 145.935-145.965
ESTCUBE 1 29 May 12:57:36 13:02:10 76° 104° (ESE) 13:06:42 437.505/2401.250
ITAMSAT 1 29 May 12:57:39 13:00:48 17° 51° (NE) 13:04:07 435.822/435.867
DANDE 29 May 12:58:13 13:05:23 42° 88° (E) 13:13:18 436.750
POLYITAN 1 29 May 12:58:14 13:00:58 16° 273° (W) 13:03:34 437.675
Cosmos 2504 29 May 12:59:48 13:06:17 26° 304° (NW) 13:12:18 435.465 / 435.565
SPROUT 29 May 13:02:58 13:06:40 27° 93° (E) 13:10:22 437.525
UWE-3 29 May 13:03:26 13:06:31 18° 302° (WNW) 13:09:27 435.000/436.395/437.385
HO-68 29 May 13:04:22 13:09:25 21° 317° (NW) 13:14:16 435.675
FUNcube-1 29 May 13:05:53 13:09:08 20° 301° (WNW) 13:12:14 145.935
CUSAT 1 29 May 13:10:23 13:18:04 57° 94° (E) 13:26:10 437.405
TISAT 1 29 May 13:15:33 13:19:08 26° 93° (E) 13:22:45 437.305
AO-7 29 May 13:16:26 13:21:41 19° 31° (NNE) 13:27:06 29.400- 29.500
AISAT 29 May 13:16:52 13:21:14 49° 292° (WNW) 13:25:33 437.250
HUMSAT D 29 May 13:18:48 13:22:19 26° 297° (WNW) 13:25:44 437.325/437.525
